Regional Weather Roundup
Issued by NWS State College, PA

Home | Current Version | Previous Version | Text Only | Print | Product List | Glossary On
Versions: 1 2 3 4 5 6 7 8 9 10 11 12 13 14 15 16 17 18 19 20 21 22 23 24 25 26 27 28 29 30 31 32 33 34 35 36 37 38 39 40 41 42 43 44 45 46 47 48 49 50
139
ASUS41 KCTP 041310
RWRCTP

REGIONAL WEATHER ROUNDUP
NATIONAL WEATHER SERVICE STATE COLLEGE PA
900 AM EDT WED MAY 04 2016

Note: "fair" indicates few or no clouds below 12,000 feet with no
significant weather and/or obstructions to visibility.

* = STATION THAT DOES NOT REPORT PRECIPITATION /E.G. RAIN...SNOW...ETC/
    THUNDER OR FOG.

PAZ002>004-007>009-013>016-020>023-029>032-041400-
WESTERN PENNSYLVANIA

CITY           SKY/WX    TMP DP  RH WIND       PRES   REMARKS
ERIE           MOSUNNY   54  44  69 S8        29.71F
MEADVILLE      SUNNY     48  41  76 VRB5      29.71S
FRANKLIN*      CLOUDY    45  43  93 E3        29.74S
NEW CASTLE     NOT AVBL
BEAVER COUNTY  CLOUDY    50  43  76 S3        29.72S
BUTLER*        CLOUDY    52  39  62 CALM      29.74F
PITTSBURGH INT PTSUNNY   52  44  74 VRB3      29.71S
PITTSBURGH     CLOUDY    52  45  77 S5        29.71F
INDIANA*       PTSUNNY   52  50  93 SW3       29.74F
LATROBE        CLOUDY    50  50 100 CALM      29.72F FOG
WASHINGTON CO* CLOUDY    52  45  76 CALM      29.72F
$$

PAZ004>006-010>012-017>019-024>028-033>037-041-042-045-046-049>053-041400-
CENTRAL PENNSYLVANIA

CITY           SKY/WX    TMP DP  RH WIND       PRES   REMARKS
BRADFORD       CLOUDY    45  43  93 SE3       29.72S FOG
DUBOIS         CLOUDY    47  45  93 E3        29.70F
CLEARFIELD     LGT RAIN  46  44  93 E3        29.73S FOG
JOHNSTOWN      CLOUDY    48  43  82 S3        29.71S
ALTOONA        CLOUDY    51  46  83 NE5       29.72S
STATE COLLEGE  CLOUDY    52  48  87 VRB3      29.73S
WILLIAMSPORT   CLOUDY    54  50  86 E5        29.73S
SELINSGROVE    LGT RAIN  53  51  93 S3        29.75S
FT INDIANTOWN  CLOUDY    50  50 100 VRB3      29.75F
CAPITAL CITY   CLOUDY    53  49  86 E8        29.75F FOG
HARRISBURG     LGT RAIN  52  49  89 SE7       29.74F
YORK           CLOUDY    52  50  93 E6        29.74S
$$

PAZ038>040-043-044-047-048-054-055-060>062-067>071-041400-
EASTERN PENNSYLVANIA

CITY           SKY/WX    TMP DP  RH WIND       PRES   REMARKS
SCRANTON       CLOUDY    51  47  86 CALM      29.75S
MOUNT POCONO   CLOUDY    46  44  93 E9        29.75F FOG
ALLENTOWN      CLOUDY    52  47  83 NE6       29.76F
QUAKERTOWN*    CLOUDY    50  48  93 E7        29.77S
READING        RAIN      51  48  89 E9        29.74F
LANCASTER      HVY RAIN  51  49  92 E8        29.74F FOG
COATESVILLE    CLOUDY    50  50 100 MISG      29.75F
POTTSTOWN      CLOUDY    50  50 100 NE6       29.77S
BLUE BELL      CLOUDY    48  46  93 E6        29.76R
DOYLESTOWN     CLOUDY    48  47  96 CALM      29.76R
WILLOW GROVE   NOT AVBL
NORTH PHILA    CLOUDY    52  32  46 E9        29.78S
PHILADELPHIA   CLOUDY    52  47  83 E10       29.77S
$$




USA.gov is the U.S. government's official web portal to all federal, state and local government web resources and services.